Simultaneous Nadir Overpasses (SNOs) Predictions

Prediction of SNOs between LANDSAT-8 and NPP Satellite Orbit:

Table of predicted SNOs for the next 14.0 days since TLE Epoch: 11/30/2016
Index Date (LANDSAT-8) Time (LANDSAT-8) Lat,Lon (LANDSAT-8) SZA (LANDSAT-8 ) Date (NPP) Time (NPP) Lat,Lon (NPP) SZA (NPP ) Distance(km) Time Diff (sec)
1 12/02/2016 14:42:15 -70.13, 135.98 87.92 12/02/2016 14:41:30 -70.14, 135.97 87.90 1.35 45
2 12/02/2016 15:31:42 70.02, -56.52 91.99 12/02/2016 15:32:14 70.04, -56.57 92.01 2.33 32
3 12/05/2016 06:09:03 70.82, 85.25 93.14 12/05/2016 06:07:55 70.88, 83.23 93.22 74.17 68
4 12/05/2016 06:58:44 -70.11,-108.17 87.58 12/05/2016 06:58:24 -70.09,-108.20 87.59 1.85 20
5 12/05/2016 07:48:11 70.00, 59.32 92.33 12/05/2016 07:49:08 70.00, 59.26 92.32 2.45 57
6 12/07/2016 22:25:43 70.19,-159.81 92.81 12/07/2016 22:24:36 70.16,-159.85 92.79 3.38 67
7 12/07/2016 23:15:14 -70.03, 7.59 87.35 12/07/2016 23:15:18 -70.05, 7.64 87.33 3.09 4
8 12/08/2016 00:04:46 69.64, 174.71 92.28 12/08/2016 00:05:56 69.64, 175.56 92.26 33.19 70
9 12/10/2016 14:42:12 70.10, -44.06 92.98 12/10/2016 14:41:29 70.12, -44.02 93.00 3.12 43
10 12/10/2016 15:31:42 -69.99, 123.43 87.13 12/10/2016 15:32:11 -70.01, 123.47 87.11 2.26 29
11 12/13/2016 06:09:01 -70.88, -94.66 86.06 12/13/2016 06:07:53 -70.91, -96.82 86.00 78.66 68
12 12/13/2016 06:58:40 70.11, 71.84 93.19 12/13/2016 06:58:23 70.09, 71.80 93.17 3.07 17
13 12/13/2016 07:48:11 -69.95,-120.74
